EW6999 Matawan NJ US current weather conditions

sailwx.info

Wind from 262 at 1 knots gusting 5

Air temperature 3.9° C
Dewpoint -2.7° C

Last reported at 2020-Jan-28 22:03 UTC.
Time now 2020-Jan-28 22:41 UTC

Location: N 40°25' W 074°15'.
View on Google Maps.

See reports from other nearby stations

  
Tides and Currents Weather Stations Pressure Air Temp Water Temp Dewpoint Dewpoint Depression Visibility Wind Speed Wind Dir Waves Ship Positions
date/time (UTC)wind fromknots sea level pressurealtimeterstation pressurevisibilityair tempwater tempwave heightnotes
2020-Jan-28 22:03 262 1 gusting 5 3.9
2020-Jan-28 21:48 209 0 gusting 5 3.9
2020-Jan-28 21:33 316 1 gusting 6 3.9
2020-Jan-28 21:18 278 0 gusting 6 4.4
2020-Jan-28 21:03 276 1 gusting 6 4.4
2020-Jan-28 20:48 295 2 gusting 6 4.4
2020-Jan-28 20:33 302 2 gusting 6 4.4
2020-Jan-28 20:18 210 1 gusting 4 5.0
2020-Jan-28 20:03 186 2 gusting 7 5.0
2020-Jan-28 19:48 240 1 gusting 5 5.6
2020-Jan-28 19:33 163 1 gusting 6 5.6
2020-Jan-28 19:18 039 2 gusting 6 5.6
2020-Jan-28 19:03 315 0 gusting 9 5.6
2020-Jan-28 18:48 295 2 gusting 9 5.6
2020-Jan-28 18:33 288 1 gusting 6 6.1
2020-Jan-28 18:18 271 3 gusting 9 6.7
2020-Jan-28 18:03 213 0 gusting 5 6.7
2020-Jan-28 17:48 283 4 gusting 6 7.2
2020-Jan-28 17:33 333 1 gusting 6 6.7
2020-Jan-28 17:18 266 1 gusting 7 6.7
2020-Jan-28 17:03 284 1 gusting 6 6.7
2020-Jan-28 16:48 309 7.2
2020-Jan-28 16:33 307 0 gusting 4 6.7
2020-Jan-28 16:18 317 1 gusting 8 6.1
2020-Jan-28 16:03 045 1 gusting 6 6.1
2020-Jan-28 15:48 264 1 gusting 6 6.1
2020-Jan-28 15:33 288 1 gusting 5 5.6
2020-Jan-28 15:18 346 1 gusting 6 5.0
2020-Jan-28 15:03 299 2 gusting 7 4.4
2020-Jan-28 14:48 276 1 gusting 4 3.9
2020-Jan-28 14:33 278 2 gusting 6 3.3
2020-Jan-28 14:18 233 0 gusting 6 3.3
2020-Jan-28 14:03 051 3.3
2020-Jan-28 13:48 283 2.8
2020-Jan-28 13:33 049 0 gusting 1 2.2
2020-Jan-28 13:18 336 2.2
2020-Jan-28 13:03 259 1.7
2020-Jan-28 12:48 330 1.7
2020-Jan-28 12:33 348 1.7
2020-Jan-28 12:18 265 1.1
2020-Jan-28 12:03 302 1.7
2020-Jan-28 11:48 261 1.7
2020-Jan-28 11:33 298 0 gusting 2 2.2
2020-Jan-28 11:18 205 2.2
2020-Jan-28 11:03 202 0 gusting 3 2.8
2020-Jan-28 10:48 030 2.8
2020-Jan-28 10:33 025 2.8
2020-Jan-28 10:18 296 0 gusting 2 2.2
2020-Jan-28 10:03 290 0 gusting 3 2.2
2020-Jan-28 09:48 232 0 gusting 2 2.2
2020-Jan-28 09:33 041 2.2
2020-Jan-28 09:18 262 2.2
2020-Jan-28 09:03 345 1 gusting 4 2.8
2020-Jan-28 08:48 007 1 gusting 6 2.8
2020-Jan-28 08:33 335 3.3
2020-Jan-28 08:18 307 0 gusting 2 3.3
2020-Jan-28 08:03 335 3.3
2020-Jan-28 07:48 254 0 gusting 1 3.3
2020-Jan-28 07:33 271 3.3
2020-Jan-28 07:18 297 0 gusting 3 3.3
2020-Jan-28 07:03 307 3.3
2020-Jan-28 06:48 285 3.3
2020-Jan-28 06:33 314 3.9
2020-Jan-28 06:18 252 3.9
2020-Jan-28 06:03 271 3.9
2020-Jan-28 05:48 314 3.9
2020-Jan-28 05:33 321 3.9
2020-Jan-28 05:18 274 3.9
2020-Jan-28 05:03 145 3.3
2020-Jan-28 04:48 272 3.9
2020-Jan-28 04:33 272 3.9
2020-Jan-28 04:18 278 4.4
2020-Jan-28 04:03 023 0 gusting 2 4.4
2020-Jan-28 03:48 276 3.9
2020-Jan-28 03:33 230 3.9
2020-Jan-28 03:18 230 3.9
2020-Jan-28 03:03 233 3.9
2020-Jan-28 02:48 240 4.4
2020-Jan-28 02:33 247 4.4
2020-Jan-28 02:18 315 4.4
2020-Jan-28 02:03 155 4.4
2020-Jan-28 01:48 219 4.4
2020-Jan-28 01:33 300 5.0
2020-Jan-28 01:18 274 5.0
2020-Jan-28 01:03 276 5.0
2020-Jan-28 00:48 272 5.0
2020-Jan-28 00:33 051 5.0
2020-Jan-28 00:18 236 5.0
2020-Jan-28 00:03 126 5.0
2020-Jan-27 23:48 224 5.0
2020-Jan-27 23:33 285 5.6
2020-Jan-27 23:18 249 0 gusting 1 5.6
2020-Jan-27 23:03 290 5.6
2020-Jan-27 22:48 355 5.6
2020-Jan-27 22:33 297 5.6
2020-Jan-27 22:18 266 5.6
2020-Jan-27 22:03 246 5.0
2020-Jan-27 21:48 291 5.6
2020-Jan-27 21:33 193 6.1
2020-Jan-27 21:18 163 0 gusting 3 6.1
2020-Jan-27 21:03 297 6.7
2020-Jan-27 20:48 348 6.1
2020-Jan-27 20:33 120 0 gusting 3 6.1
2020-Jan-27 20:18 338 6.1
2020-Jan-27 20:03 191 0 gusting 5 6.1
2020-Jan-27 19:48 163 6.1
2020-Jan-27 19:33 157 6.1
2020-Jan-27 19:18 050 0 gusting 4 6.1
2020-Jan-27 19:03 193 0 gusting 4 6.7
2020-Jan-27 18:48 237 0 gusting 2 6.7
2020-Jan-27 18:33 148 0 gusting 5 6.7
2020-Jan-27 18:18 127 6.7
2020-Jan-27 18:03 042 6.7
2020-Jan-27 17:48 146 6.1
2020-Jan-27 17:33 137 0 gusting 3 5.6
2020-Jan-27 17:18 023 5.6
2020-Jan-27 17:03 084 5.6
2020-Jan-27 16:48 195 5.6
2020-Jan-27 16:33 046 5.6
2020-Jan-27 16:18 206 0 gusting 3 6.1
2020-Jan-27 16:03 146 0 gusting 6 6.1
2020-Jan-27 15:48 233 5.6
2020-Jan-27 15:33 032 0 gusting 6 5.6
2020-Jan-27 15:18 179 0 gusting 5 5.0
2020-Jan-27 15:03 297 5.0
2020-Jan-27 14:48 195 5.0
2020-Jan-27 14:33 080 0 gusting 6 4.4
2020-Jan-27 14:18 231 1 gusting 8 3.9
2020-Jan-27 14:03 245 3.3
2020-Jan-27 13:48 246 2.8
2020-Jan-27 13:33 220 2.8
2020-Jan-27 13:18 214 2.2
2020-Jan-27 13:03 110 2.2
2020-Jan-27 12:48 091 1.7
2020-Jan-27 12:33 117 1.7
2020-Jan-27 12:18 134 1.1
2020-Jan-27 12:03 164 1.1
2020-Jan-27 11:48 217 0.6
2020-Jan-27 11:33 220 0.6
2020-Jan-27 11:18 220 1.1
2020-Jan-27 11:03 131 1.1
2020-Jan-27 10:48 199 1.7
2020-Jan-27 10:33 233 1.7
2020-Jan-27 10:18 197 1.7
2020-Jan-27 10:03 219 2.2
2020-Jan-27 09:48 199 1.7
2020-Jan-27 09:33 140 1.7
2020-Jan-27 09:18 133 1.1
2020-Jan-27 09:03 157 0.6
2020-Jan-27 08:48 146 0.6
2020-Jan-27 08:33 209 0.6
2020-Jan-27 08:18 221 -0.0
2020-Jan-27 08:03 197 -0.0
2020-Jan-27 07:48 197 0.6
2020-Jan-27 07:33 197 0.6
2020-Jan-27 07:18 167 0.6
2020-Jan-27 07:03 228 -0.0
2020-Jan-27 06:48 225 -0.6
2020-Jan-27 06:33 224 -1.1
2020-Jan-27 06:18 167 -1.7
2020-Jan-27 06:03 167 -1.7
2020-Jan-27 05:48 167 -1.7
2020-Jan-27 05:33 168 -1.1
2020-Jan-27 05:18 167 -1.1
2020-Jan-27 05:03 167 -1.1
2020-Jan-27 04:48 167 -1.1
2020-Jan-27 04:33 167 -0.6
2020-Jan-27 04:18 166 -0.6
2020-Jan-27 04:03 166 -0.0
2020-Jan-27 03:48 166 0.6
2020-Jan-27 03:33 166 1.1
2020-Jan-27 03:18 157 2.2
2020-Jan-27 03:03 214 2.2
2020-Jan-27 02:48 221 2.2
2020-Jan-27 02:33 201 2.2
2020-Jan-27 02:18 302 2.2
2020-Jan-27 02:03 170 2.2
2020-Jan-27 01:48 214 2.2
2020-Jan-27 01:33 262 2.2
2020-Jan-27 01:18 262 2.8
2020-Jan-27 01:03 250 3.3
2020-Jan-27 00:48 291 0 gusting 3 3.9
2020-Jan-27 00:33 229 4.4
2020-Jan-27 00:18 334 4.4
2020-Jan-27 00:03 096 5.0
2020-Jan-26 23:48 252 0 gusting 4 5.6
2020-Jan-26 23:33 148 5.6
2020-Jan-26 23:18 062 5.6
2020-Jan-26 23:03 257 6.1
2020-Jan-26 22:48 172 6.1
2020-Jan-26 22:33 249 6.1
2020-Jan-26 22:18 216 6.1
2020-Jan-26 22:03 337 6.1